Simultaneous Nadir Overpasses (SNOs) Predictions

Prediction of SNOs between GOES-17 and FY3D Satellite Orbit:

Table of predicted SNOs for the next 14.0 days since TLE Epoch: 11/2/2019
Index Date Time (GOES-17) GOES-17 Lat,Lon FY3D Lat,Lon Distance(km) Time Diff (sec)
1 11/02/2019 22:38:12 -0.00,-137.20 -0.09,-137.63 48.19 80
2 11/03/2019 22:21:56 -0.00,-137.20 0.92,-133.05 472.73 80
3 11/05/2019 10:40:47 0.00,-137.20 0.25,-138.25 120.36 80
4 11/06/2019 10:24:32 0.00,-137.19 -0.76,-133.68 400.32 80
5 11/07/2019 22:43:32 -0.00,-137.18 -0.39,-138.92 198.55 80
6 11/08/2019 22:27:17 -0.00,-137.17 0.62,-134.34 321.91 80
7 11/10/2019 10:46:08 0.01,-137.16 0.56,-139.54 272.04 80
8 11/11/2019 10:29:53 0.01,-137.15 -0.45,-134.97 248.07 80
9 11/12/2019 22:48:53 -0.01,-137.12 -0.68,-140.21 351.82 80
10 11/13/2019 22:32:38 -0.02,-137.10 0.33,-135.64 167.79 80
11 11/15/2019 10:51:29 0.02,-137.08 0.86,-140.84 427.81 80




NCC Satellite Simultaneous Nadir Overpasses (SNOs) Prediction Service
